Location: Proctor
(47.8934°N, 114.3048°W)
Time: 21:31:34
(UTC+00:00)

Tiros 1 despin weight - Pass Details

Date: 28 June 2024
Orbit: 576 x 620 km, 48.2° (Epoch: 19 July)

Event Time Altitude Azimuth Distance (km) Brightness Sun altitude
Rises 18:39:16 0° 249° (WSW) 2,875 ? 62.5°
Reaches altitude 10° 18:41:34 10° 247° (WSW) 1,976 ? 62.7°
Maximum altitude 18:46:06 73° 164° (SSE) 652 ? 63.0°
Drops below altitude 10° 18:50:40 10° 80° (E) 1,990 ? 63.4°
Sets 18:52:59 0° 78° (ENE) 2,897 ? 63.6°
